Milan, NH

6:19 PM EDT on August 31, 2016 (GMT -0400)
Berlin Municipal

Weather History for KBML - March, 2013

Change the Weather History Date:

Sunday, March 3, 2013

  Actual Average Record
Temperature  
Mean Temperature 30 °F -  
Max Temperature 34 °F 30 °F 53 °F (2002)
Min Temperature 25 °F 6 °F -15 °F (2014)
Degree Days  
Heating Degree Days 36    
Moisture  
Dew Point 23 °F    
Average Humidity 83    
Maximum Humidity 93    
Minimum Humidity 67    
Precipitation  
Precipitation 0.01 in - - ()
Sea Level Pressure  
Sea Level Pressure 29.62 in    
Wind  
Wind Speed 1 mph (NW)    
Max Wind Speed 9 mph    
Max Gust Speed -    
Visibility 7 miles    
Events Snow    
Averages and records for this station are not official NWS values.
T = Trace of Precipitation, MM = Missing Value Source: NWS Daily Summary

Daily Weather History Graph

Daily Weather History Graph

Search for Another Location

Airport or City:

Trip Planner

Search our weather history database for the weather conditions in past years. The results will help you decide how hot, cold, wet, or windy it might be!

Date:

Astronomy

Mar. 03, 2013 Rise Set
Actual Time 6:18 AM EST 5:35 PM EST
Civil Twilight 5:49 AM EST 6:04 PM EST
Nautical Twilight 5:15 AM EST 6:38 PM EST
Astronomical Twilight 4:41 AM EST 7:12 PM EST
Moon No Moon Rise 9:15 AM EST (3/3)
Length of Visible Light 12h 15m
Length of Day
11h 17m
Waning Gibbous, 64% of the Moon is Illuminated
Mar 3
Waning Gibbous
Mar 4
Last Quarter
Mar 11
New
Mar 19
First Quarter
Mar 27
Full

Hourly Weather History & Observations

Time (EST) Temp. Windchill Dew Point Humidity Pressure Visibility Wind Dir Wind Speed Gust Speed Precip Events Conditions
12:05 AM 26.6 °F - 24.8 °F 93% 29.64 in 1.2 mi Calm Calm - 0.00 in Snow Light Snow
12:17 AM 26.6 °F - 24.8 °F 93% 29.63 in 1.8 mi Calm Calm - 0.01 in Snow Light Snow
12:35 AM 26.6 °F - 24.8 °F 93% 29.64 in 2.5 mi Calm Calm - 0.01 in Snow Light Snow
12:41 AM 26.6 °F - 24.8 °F 93% 29.64 in 3.0 mi Calm Calm - 0.01 in Snow Light Snow
1:07 AM 26.6 °F - 23.0 °F 86% 29.63 in 4.0 mi Calm Calm - 0.00 in Snow Light Snow
1:52 AM 27.0 °F - 23.0 °F 85% 29.67 in 7.0 mi Calm Calm - 0.00 in Snow Light Snow
2:52 AM 26.1 °F - 23.0 °F 88% 29.66 in 5.0 mi Calm Calm - 0.00 in   Overcast
3:10 AM 26.6 °F - 23.0 °F 86% 29.61 in 3.0 mi Calm Calm - N/A   Overcast
3:28 AM 26.6 °F - 23.0 °F 86% 29.61 in 2.5 mi Calm Calm - N/A   Overcast
3:37 AM 26.6 °F - 23.0 °F 86% 29.61 in 3.0 mi Calm Calm - N/A   Overcast
3:52 AM 26.1 °F - 23.0 °F 88% 29.66 in 5.0 mi Calm Calm - N/A   Overcast
4:04 AM 26.6 °F - 23.0 °F 86% 29.61 in 7.0 mi Calm Calm - N/A   Overcast
4:17 AM 26.6 °F - 23.0 °F 86% 29.61 in 4.0 mi Calm Calm - N/A   Overcast
4:25 AM 26.6 °F - 23.0 °F 86% 29.61 in 5.0 mi Calm Calm - N/A   Overcast
4:36 AM 26.6 °F - 23.0 °F 86% 29.61 in 7.0 mi Calm Calm - N/A   Overcast
4:52 AM 26.1 °F - 23.0 °F 88% 29.66 in 5.0 mi Calm Calm - N/A   Overcast
5:52 AM 26.1 °F - 23.0 °F 88% 29.66 in 10.0 mi Calm Calm - N/A   Overcast
6:52 AM 26.1 °F - 21.9 °F 84% 29.67 in 10.0 mi Calm Calm - N/A   Overcast
7:52 AM 27.0 °F - 23.0 °F 85% 29.67 in 4.0 mi Calm Calm - 0.01 in   Overcast
8:41 AM 26.6 °F - 24.8 °F 93% 29.61 in 7.0 mi Calm Calm - N/A   Overcast
8:52 AM 28.0 °F - 24.1 °F 85% 29.66 in 9.0 mi Calm Calm - N/A   Overcast
9:06 AM 28.4 °F - 24.8 °F 86% 29.61 in 8.0 mi Calm Calm - N/A   Overcast
9:16 AM 28.4 °F - 24.8 °F 86% 29.61 in 9.0 mi Calm Calm - N/A   Overcast
9:35 AM 28.4 °F 24.6 °F 23.0 °F 80% 29.60 in 10.0 mi NW 3.5 mph - N/A   Overcast
9:52 AM 28.9 °F - 23.0 °F 78% 29.65 in 10.0 mi Calm Calm - N/A   Overcast
10:00 AM 28.4 °F - 23.0 °F 80% 29.60 in 7.0 mi Calm Calm - 0.00 in Snow Light Snow
10:17 AM 30.2 °F - 24.8 °F 80% 29.59 in 8.0 mi Calm Calm - 0.00 in Snow Light Snow
10:52 AM 30.0 °F 26.5 °F 23.0 °F 75% 29.63 in 9.0 mi Variable 3.5 mph - 0.00 in Snow Light Snow
11:52 AM 30.9 °F 27.5 °F 24.1 °F 76% 29.62 in 10.0 mi Variable 3.5 mph - N/A   Overcast
12:52 PM 34.0 °F 28.8 °F 24.1 °F 67% 29.59 in 10.0 mi NW 5.8 mph - N/A   Overcast
1:52 PM 33.1 °F 26.1 °F 25.0 °F 72% 29.59 in 10.0 mi NNW 8.1 mph - N/A   Overcast
2:52 PM 32.0 °F 26.4 °F 25.0 °F 75% 29.59 in 10.0 mi Variable 5.8 mph - N/A   Overcast
4:40 PM 30.2 °F 25.4 °F 24.8 °F 80% 29.56 in 10.0 mi NW 4.6 mph - N/A   Overcast
4:48 PM 30.2 °F 22.6 °F 23.0 °F 75% 29.56 in 10.0 mi NNW 8.1 mph - N/A   Overcast
4:52 PM 30.0 °F 21.7 °F 23.0 °F 75% 29.61 in 10.0 mi NNW 9.2 mph - N/A   Overcast
5:52 PM 30.0 °F 23.2 °F 21.9 °F 72% 29.62 in 10.0 mi NNW 6.9 mph - N/A   Overcast
6:27 PM 28.4 °F 23.3 °F 24.8 °F 86% 29.57 in 10.0 mi WNW 4.6 mph - N/A   Overcast
6:52 PM 28.9 °F 22.8 °F 23.0 °F 78% 29.62 in 10.0 mi Variable 5.8 mph - N/A   Overcast
7:52 PM 27.0 °F 19.5 °F 21.9 °F 81% 29.62 in 10.0 mi NW 6.9 mph - N/A   Overcast
8:52 PM 26.1 °F 21.9 °F 21.0 °F 81% 29.63 in 10.0 mi NNW 3.5 mph - N/A   Overcast
9:52 PM 25.0 °F 18.1 °F 19.9 °F 81% 29.62 in 10.0 mi NNW 5.8 mph - N/A   Overcast
10:52 PM 25.0 °F 20.7 °F 19.9 °F 81% 29.61 in 10.0 mi Variable 3.5 mph - N/A   Overcast
11:52 PM 25.0 °F - 19.9 °F 81% 29.60 in 10.0 mi Calm Calm - N/A   Overcast